• Join FlightAware (Why Join?)
  • Login
  • US Flag 
01:11PM EDT


 

Airport Tracker/Info


-or-


 

Live Flight TrackerFlight Track Log ✈ AWE1940 ✈ 04-May-2013 ✈ KCLT - KALB

Flight Track Log - Related Links

Times and Time Zones

All times are in EDT time to prevent confusion due to time zone crossing. See the AWE1940 flight status page for this flight to view local times or setup timezone preferences in your user account.

Time Position Orientation Groundspeed Altitude Reporting Facility
EDT Latitude Longitude Course Direction KTS MPH feet Rate Location/Type
10:24PM 35.2328 -80.9392 72° East 158 182 1,700  Level Atlanta Center
10:26PM 35.2778 -80.9069 30° Northeast 198 228 4,100 1,980 Climbing Atlanta Center
10:27PM 35.2819 -80.8306 86° East 245 282 6,300 2,580 Climbing Atlanta Center
10:28PM 35.2944 -80.7436 80° East 282 325 9,500 2,400 Climbing Atlanta Center
10:29PM 35.3064 -80.6489 81° East 280 322 11,200 1,620 Climbing Atlanta Center
10:30PM 35.3635 -80.3523 72° East  Level FlightAware Approximate
10:30PM 35.3236 -80.5233 80° East 334 384 12,800  Level Atlanta Center
10:32PM 35.3997 -80.2500 71° East 438 504 17,300 2,040 Climbing Washington Center
10:33PM 35.4406 -80.1097 70° East 432 497 19,200 1,860 Climbing Washington Center
10:34PM 35.4814 -79.9639 71° East 440 506 21,100 1,800 Climbing Washington Center
10:35PM 35.5203 -79.8106 73° East 451 519 22,800 1,680 Climbing Washington Center
10:36PM 35.5550 -79.6564 74° East 462 532 24,500 1,500 Climbing Washington Center
10:37PM 35.5978 -79.5003 71° East 476 548 25,800 1,020 Climbing Washington Center
10:38PM 35.6483 -79.3544 67° East 471 542 26,600 1,140 Climbing Washington Center
10:39PM 35.7072 -79.2039 64° Northeast 471 542 28,100 1,140 Climbing Washington Center
10:40PM 35.7681 -79.0556 63° Northeast 476 548 28,900 420 Climbing Washington Center
10:41PM 35.8311 -78.8917 65° Northeast 482 555 29,000  Climbing Washington Center
10:42PM 35.8956 -78.7458 61° Northeast 482 555 29,000  Level Washington Center
10:43PM 35.9617 -78.6072 59° Northeast 477 549 29,000  Level Washington Center
10:44PM 36.0297 -78.4633 60° Northeast 477 549 29,000  Level Washington Center
10:45PM 36.0978 -78.3244 59° Northeast 471 542 29,000 60 Level Washington Center
10:46PM 36.1656 -78.1853 59° Northeast 471 542 29,200 1,200 Climbing Washington Center
10:47PM 36.2311 -78.0458 60° Northeast 476 548 31,400 1,440 Climbing Washington Center
10:48PM 36.2964 -77.9114 59° Northeast 466 536 32,100 660 Climbing Washington Center
10:49PM 36.3617 -77.7742 59° Northeast 461 531 32,800 1,380 Climbing Washington Center
10:50PM 36.4222 -77.6389 61° Northeast 454 522 34,900 1,080 Climbing Washington Center
10:51PM 36.4828 -77.5114 59° Northeast 441 507 35,000  Climbing Washington Center
10:52PM 36.5411 -77.3808 61° Northeast 430 495 35,000  Level Washington Center
10:53PM 36.6036 -77.2478 60° Northeast 435 501 35,000  Level Washington Center
10:54PM 36.6636 -77.1197 60° Northeast 435 501 35,000  Level Washington Center
10:55PM 36.7342 -76.9939 55° Northeast 435 501 35,000  Level Washington Center
10:56PM 36.8333 -76.9025 36° Northeast 430 495 35,000  Level Washington Center
10:57PM 36.9322 -76.8131 36° Northeast 430 495 35,000  Level Washington Center
10:58PM 37.0228 -76.7339 35° Northeast 440 506 35,000  Level Washington Center
10:59PM 37.1236 -76.6417 36° Northeast 440 506 35,000  Level Washington Center
11:00PM 37.2225 -76.5517 36° Northeast 440 506 35,000  Level Washington Center
11:01PM 37.3192 -76.4614 37° Northeast 434 499 35,000  Level Washington Center
11:02PM 37.4178 -76.3736 35° Northeast 434 499 35,000  Level Washington Center
11:03PM 37.5142 -76.2856 36° Northeast 434 499 35,000  Level Washington Center
11:04PM 37.6106 -76.1947 37° Northeast 434 499 35,000 -60 Level Washington Center
11:05PM 37.7217 -76.0986 34° Northeast 429 494 34,900  Descending Washington Center
11:06PM 37.8053 -76.0150 38° Northeast 429 494 35,000  Climbing Washington Center
11:07PM 37.9142 -75.9156 36° Northeast 429 494 35,000  Level Washington Center
11:08PM 37.9914 -75.8419 37° Northeast 439 505 35,000  Level Washington Center
11:09PM 38.1083 -75.7317 37° Northeast 439 505 35,000  Level Washington Center
11:10PM 38.2064 -75.6394 36° Northeast 434 499 35,000  Level Washington Center
11:11PM 38.3044 -75.5467 37° Northeast 434 499 35,000 -60 Level Washington Center
11:12PM 38.3983 -75.4806 29° Northeast 427 491 34,900 -60 Descending Washington Center
11:13PM 38.5044 -75.4061 29° Northeast 427 491 34,900  Level Washington Center
11:14PM 38.6108 -75.3392 26° Northeast 421 484 34,900  Level Washington Center
11:15PM 38.7189 -75.2669 28° Northeast 421 484 34,900  Level Washington Center
11:16PM 38.8250 -75.2000 26° Northeast 426 490 34,900  Level Washington Center
11:17PM 38.9311 -75.1300 27° Northeast 426 490 34,900  Level Washington Center
11:18PM 39.0350 -75.0625 27° Northeast 426 490 34,900  Level Washington Center
11:19PM 39.1389 -74.9922 28° Northeast 421 484 34,900  Level Washington Center
11:20PM 39.2469 -74.9217 27° Northeast 426 490 34,900  Level Washington Center
11:21PM 39.4319 -74.7972 27° Northeast 444 511 34,900  Level New York Center
11:22PM 39.5461 -74.7472 19° North 431 496 34,900  Level New York Center
11:23PM 39.6619 -74.7161 12° North 418 481 34,900  Level New York Center
11:24PM 39.7775 -74.6875 11° North 418 481 34,900  Level New York Center
11:25PM 39.8872 -74.6531 14° North 412 474 34,900  Level New York Center
11:26PM 40.0047 -74.6217 12° North 412 474 34,900  Level New York Center
11:27PM 40.1164 -74.5872 13° North 412 474 34,900  Level New York Center
11:28PM 40.2278 -74.5578 11° North 412 474 34,900  Level New York Center
11:29PM 40.3269 -74.5225 15° North 412 474 34,900  Level New York Center
11:30PM 40.4406 -74.4906 12° North 412 474 34,900  Level New York Center
11:31PM 40.5542 -74.4583 12° North 412 474 34,900  Level New York Center
11:34PM 40.8039 -74.3842 13° North 420 483 34,900  Level Boston Center
11:35PM 40.9211 -74.3575 10° North 412 474 34,900  Level Boston Center
11:36PM 41.0281 -74.3247 13° North 406 467 34,900 -360 Level Boston Center
11:37PM 41.1389 -74.2922 12° North 401 461 34,200 -1,920 Descending Boston Center
11:38PM 41.2478 -74.2594 13° North 396 456 31,100 -3,300 Descending Boston Center
11:39PM 41.3547 -74.2239 14° North 391 450 27,700 -2,580 Descending Boston Center
11:40PM 41.4697 -74.1911 12° North 401 461 26,000 -1,560 Descending Boston Center
11:41PM 41.5914 -74.1556 12° North 420 483 24,600 -1,740 Descending Boston Center
11:42PM 41.7128 -74.1197 12° North 420 483 22,600 -2,100 Descending Boston Center
11:43PM 41.8194 -74.0892 12° North 408 470 20,500 -2,040 Descending Boston Center
11:44PM 41.9178 -74.0556 14° North 405 466 18,700 -1,920 Descending Boston Center
11:45PM 42.0372 -74.0222 12° North 400 460 16,900 -1,920 Descending Boston Center
11:46PM 42.1417 -73.9914 12° North 390 449 14,900 -2,100 Descending Boston Center
11:47PM 42.2464 -73.9575 13° North 383 441 12,700 -2,040 Descending Boston Center
11:48PM 42.3447 -73.9289 12° North 364 419 10,800 -1,380 Descending Boston Center
11:49PM 42.4328 -73.9000 14° North 316 364 10,000 -1,080 Descending Boston Center
11:50PM 42.5100 -73.8906 North 271 312 8,700 -1,740 Descending Boston Center
11:51PM 42.5869 -73.9008 354° North 267 307 6,600 -2,100 Descending Boston Center
11:52PM 42.6639 -73.9111 354° North 272 313 4,500 -1,620 Descending Boston Center
11:53PM 42.7347 -73.9128 359° North 267 307 3,400 -1,020 Descending Boston Center
11:54PM 42.7992 -73.9172 357° North 256 295 2,500 -480 Descending Boston Center
11:55PM 42.8475 -73.8956 18° North 194 223 2,500 -60 Level Boston Center
11:56PM 42.8378 -73.8331 102° East 164 189 2,400 -600 Descending Boston Center
11:57PM 42.8006 -73.8097 155° Southeast 119 137 1,300 -1,020 Descending Boston Center
11:58PM 42.7653 -73.8061 176° South 129 148 400 -900 Descending Boston Center